Weather History for Madison, MN

Change the Weather History Date:

Monday, January 13, 2014

  Actual Average (KAQP) Record (KAQP)
Temperature  
Mean Temperature 29 °F -  
Max Temperature 37 °F 17 °F 33 °F (2014)
Min Temperature 21 °F 1 °F -27 °F (2009)
Degree Days  
Heating Degree Days 36    
Moisture  
Dew Point 25 °F    
Average Humidity 80    
Maximum Humidity 93    
Minimum Humidity 65    
Precipitation  
Precipitation 0.02 in - - ()
Sea Level Pressure  
Sea Level Pressure 29.62 in    
Wind  
Wind Speed 11 mph (West)    
Max Wind Speed 24 mph    
Max Gust Speed 29 mph    
Visibility 9 miles    
Events Snow    
Averages and records for this station are not official NWS values.
T = Trace of Precipitation, MM = Missing Value Source: NWS Daily Summary

Daily Weather History Graph

Daily Weather History Graph

Search for Another Location

Airport:

Trip Planner

Search our weather history database for the weather conditions in past years. The results will help you decide how hot, cold, wet, or windy it might be!

Date:

Astronomy

Jan. 13, 2014 Rise Set
Actual Time 8:00 AM CST 5:07 PM CST
Civil Twilight 7:27 AM CST 5:39 PM CST
Nautical Twilight 6:50 AM CST 6:16 PM CST
Astronomical Twilight 6:15 AM CST 6:51 PM CST
Moon 3:23 PM CST (1/13) 5:49 AM CST (1/13)
Length of Visible Light 10h 12m
Length of Day
9h 06m
Waxing Gibbous, 95% of the Moon is Illuminated
Jan 13
Waxing Gibbous
Jan 15
Full
Jan 23
Last Quarter
Jan 30
New
Feb 6
First Quarter

Hourly Weather History & Observations

Time (CST) Temp. Windchill Dew Point Humidity Pressure Visibility Wind Dir Wind Speed Gust Speed Precip Events Conditions
12:13 AM 37.4 °F 28.5 °F 30.2 °F 75% 29.56 in 10.0 mi NW 15.0 mph - N/A   Clear
12:33 AM 35.6 °F 25.5 °F 30.2 °F 81% 29.57 in 10.0 mi NW 17.3 mph - N/A   Clear
12:54 AM 35.6 °F 25.5 °F 30.2 °F 81% 29.58 in 10.0 mi NNW 17.3 mph - N/A   Scattered Clouds
1:13 AM 35.6 °F 24.0 °F 30.2 °F 81% 29.60 in 10.0 mi NW 23.0 mph 28.8 mph N/A   Mostly Cloudy
1:33 AM 35.6 °F 23.7 °F 28.4 °F 75% 29.61 in 10.0 mi NNW 24.2 mph 27.6 mph N/A   Overcast
1:54 AM 35.6 °F 25.9 °F 28.4 °F 75% 29.62 in 10.0 mi NW 16.1 mph - N/A   Overcast
2:14 AM 35.6 °F 26.2 °F 28.4 °F 75% 29.64 in 10.0 mi NNW 15.0 mph 20.7 mph N/A   Overcast
2:33 AM 35.6 °F 25.2 °F 28.4 °F 75% 29.65 in 10.0 mi NNW 18.4 mph 25.3 mph N/A   Overcast
2:54 AM 33.8 °F 23.5 °F 28.4 °F 81% 29.66 in 10.0 mi NW 16.1 mph 19.6 mph N/A   Overcast
3:14 AM 33.8 °F 23.5 °F 26.6 °F 75% 29.67 in 10.0 mi NW 16.1 mph - N/A   Overcast
3:33 AM 33.8 °F 23.9 °F 24.8 °F 70% 29.67 in 10.0 mi NW 15.0 mph 20.7 mph N/A   Mostly Cloudy
3:54 AM 30.2 °F 20.8 °F 24.8 °F 80% 29.67 in 10.0 mi NW 11.5 mph - N/A   Clear
4:14 AM 30.2 °F 20.8 °F 24.8 °F 80% 29.67 in 10.0 mi WNW 11.5 mph - N/A   Clear
4:34 AM 28.4 °F 19.1 °F 23.0 °F 80% 29.68 in 10.0 mi WNW 10.4 mph - N/A   Clear
4:54 AM 28.4 °F 18.5 °F 23.0 °F 80% 29.68 in 10.0 mi West 11.5 mph - N/A   Clear
5:13 AM 26.6 °F 17.5 °F 21.2 °F 80% 29.68 in 10.0 mi West 9.2 mph - N/A   Clear
5:34 AM 26.6 °F 16.8 °F 21.2 °F 80% 29.69 in 10.0 mi West 10.4 mph - N/A   Clear
5:53 AM 26.6 °F 15.7 °F 21.2 °F 80% 29.69 in 10.0 mi West 12.7 mph - N/A   Clear
6:14 AM 26.6 °F 15.7 °F 21.2 °F 80% 29.69 in 10.0 mi WNW 12.7 mph - N/A   Clear
6:34 AM 26.6 °F 15.2 °F 21.2 °F 80% 29.70 in 10.0 mi WNW 13.8 mph - N/A   Clear
6:53 AM 26.6 °F 16.2 °F 21.2 °F 80% 29.70 in 10.0 mi WNW 11.5 mph - N/A   Clear
7:14 AM 24.8 °F 16.1 °F 21.2 °F 86% 29.71 in 10.0 mi West 8.1 mph - N/A   Clear
7:34 AM 21.2 °F 12.6 °F 17.6 °F 86% 29.70 in 10.0 mi West 6.9 mph - N/A   Clear
7:53 AM 24.8 °F 20.5 °F 19.4 °F 80% 29.71 in 10.0 mi WSW 3.5 mph - N/A   Clear
8:13 AM 23.0 °F - 19.4 °F 86% 29.72 in 10.0 mi Calm Calm - N/A   Clear
8:34 AM 23.0 °F 18.4 °F 19.4 °F 86% 29.72 in 10.0 mi WSW 3.5 mph - N/A   Clear
8:54 AM 21.2 °F 13.6 °F 19.4 °F 93% 29.72 in 10.0 mi WSW 5.8 mph - N/A   Clear
9:13 AM 24.8 °F 17.9 °F 19.4 °F 80% 29.71 in 10.0 mi West 5.8 mph - N/A   Clear
9:34 AM 23.0 °F 14.7 °F 19.4 °F 86% 29.71 in 10.0 mi West 6.9 mph - N/A   Clear
9:54 AM 26.6 °F 19.1 °F 19.4 °F 74% 29.71 in 10.0 mi West 6.9 mph - N/A   Clear
10:13 AM 28.4 °F 21.2 °F 21.2 °F 74% 29.70 in 10.0 mi West 6.9 mph - N/A   Clear
10:34 AM 30.2 °F 21.3 °F 23.0 °F 75% 29.70 in 10.0 mi WNW 10.4 mph - N/A   Clear
10:54 AM 30.2 °F 23.4 °F 23.0 °F 75% 29.70 in 10.0 mi West 6.9 mph - N/A   Clear
11:13 AM 32.0 °F 24.2 °F 24.8 °F 75% 29.69 in 10.0 mi West 9.2 mph - N/A   Clear
11:34 AM 33.8 °F 25.3 °F 24.8 °F 70% 29.69 in 10.0 mi West 11.5 mph - N/A   Clear
11:54 AM 33.8 °F 24.8 °F 24.8 °F 70% 29.68 in 10.0 mi West 12.7 mph - N/A   Clear
12:13 PM 33.8 °F 25.3 °F 24.8 °F 70% 29.67 in 10.0 mi West 11.5 mph 16.1 mph N/A   Clear
12:34 PM 33.8 °F 24.3 °F 24.8 °F 70% 29.67 in 10.0 mi West 13.8 mph - N/A   Clear
12:54 PM 33.8 °F 26.4 °F 24.8 °F 70% 29.65 in 10.0 mi West 9.2 mph - N/A   Clear
1:13 PM 33.8 °F 27.0 °F 24.8 °F 70% 29.64 in 10.0 mi West 8.1 mph - N/A   Clear
1:34 PM 35.6 °F 31.7 °F 24.8 °F 65% 29.63 in 10.0 mi WNW 4.6 mph - N/A   Clear
1:53 PM 35.6 °F 31.7 °F 24.8 °F 65% 29.63 in 10.0 mi West 4.6 mph - N/A   Scattered Clouds
2:14 PM 35.6 °F 31.7 °F 24.8 °F 65% 29.63 in 10.0 mi West 4.6 mph - N/A   Scattered Clouds
2:34 PM 35.6 °F 32.8 °F 24.8 °F 65% 29.63 in 7.0 mi WNW 3.5 mph - N/A Snow Light Snow
2:53 PM 33.8 °F - 26.6 °F 75% 29.63 in 2.5 mi Calm Calm - N/A Snow Light Snow
3:14 PM 33.8 °F - 26.6 °F 75% 29.63 in 2.5 mi Calm Calm - N/A   Unknown
3:33 PM 33.8 °F 30.8 °F 28.4 °F 81% 29.61 in 5.0 mi East 3.5 mph - N/A Snow Light Snow
3:53 PM 33.8 °F 28.6 °F 28.4 °F 81% 29.60 in 7.0 mi ESE 5.8 mph - N/A Snow Light Snow
4:14 PM 32.0 °F 24.8 °F 28.4 °F 87% 29.59 in 10.0 mi SE 8.1 mph - N/A   Mostly Cloudy
4:33 PM 33.8 °F 27.0 °F 28.4 °F 81% 29.59 in 10.0 mi SSE 8.1 mph - N/A   Overcast
4:54 PM 33.8 °F 27.0 °F 28.4 °F 81% 29.60 in 10.0 mi SE 8.1 mph - N/A   Overcast
5:14 PM 33.8 °F 27.0 °F 28.4 °F 81% 29.59 in 10.0 mi SE 8.1 mph - N/A   Mostly Cloudy
5:33 PM 32.0 °F 24.8 °F 28.4 °F 87% 29.58 in 10.0 mi SE 8.1 mph - N/A   Scattered Clouds
5:54 PM 30.2 °F 21.9 °F 26.6 °F 86% 29.57 in 10.0 mi SE 9.2 mph - N/A   Clear
6:14 PM 30.2 °F 21.9 °F 26.6 °F 86% 29.56 in 10.0 mi SE 9.2 mph - N/A   Clear
6:33 PM 28.4 °F 20.4 °F 26.6 °F 93% 29.55 in 10.0 mi SE 8.1 mph - N/A   Clear
6:54 PM 28.4 °F 20.4 °F 26.6 °F 93% 29.54 in 10.0 mi SSE 8.1 mph - N/A   Clear
7:13 PM 28.4 °F 19.7 °F 26.6 °F 93% 29.53 in 10.0 mi SSE 9.2 mph - N/A   Clear
7:34 PM 28.4 °F 19.7 °F 26.6 °F 93% 29.53 in 10.0 mi SE 9.2 mph - N/A   Clear
7:53 PM 28.4 °F 19.7 °F 24.8 °F 86% 29.50 in 10.0 mi SSE 9.2 mph - N/A   Clear
8:14 PM 28.4 °F 21.2 °F 24.8 °F 86% 29.50 in 10.0 mi SSE 6.9 mph - N/A   Clear
8:33 PM 28.4 °F 24.6 °F 24.8 °F 86% 29.50 in 10.0 mi SSE 3.5 mph - N/A   Mostly Cloudy
8:53 PM 30.2 °F 22.6 °F 26.6 °F 86% 29.48 in 10.0 mi SSE 8.1 mph - N/A   Mostly Cloudy
9:14 PM 30.2 °F 22.6 °F 26.6 °F 86% 29.47 in 10.0 mi SSE 8.1 mph - N/A   Scattered Clouds
9:33 PM 30.2 °F 24.3 °F 28.4 °F 93% 29.47 in 10.0 mi SSE 5.8 mph - N/A   Mostly Cloudy
9:53 PM 32.0 °F 27.5 °F 28.4 °F 87% 29.47 in 10.0 mi SSE 4.6 mph - N/A   Scattered Clouds
10:14 PM 32.0 °F 27.5 °F 28.4 °F 87% 29.46 in 10.0 mi ESE 4.6 mph - N/A   Scattered Clouds
10:33 PM 32.0 °F - 28.4 °F 87% 29.48 in 10.0 mi Calm Calm - N/A   Mostly Cloudy
10:54 PM 32.0 °F - 28.4 °F 87% 29.48 in 4.0 mi Calm Calm - N/A Snow Light Snow
11:14 PM 33.8 °F - 30.2 °F 87% 29.49 in 2.5 mi Calm Calm - 0.01 in Snow Light Snow
11:34 PM 33.8 °F 30.8 °F 30.2 °F 87% 29.49 in 3.0 mi West 3.5 mph - 0.02 in Snow Light Snow
11:53 PM 33.8 °F 29.6 °F 32.0 °F 93% 29.49 in 7.0 mi WNW 4.6 mph - 0.02 in Snow Light Snow